Time,TemperatureF,DewpointF,PressureIn,WindDirection,WindDirectionDegrees,WindSpeedMPH,WindSpeedGustMPH,Humidity,HourlyPrecipIn,Conditions,Clouds,dailyrainin,SoftwareType,DateUTC
2013-05-31 00:02:00,71.1,65.7,30.10,SSW,192,0.0,0.0,83,0.00,,,0.00,LWC V2.00 B2112,2013-05-31 04:02:00,
2013-05-31 00:07:00,70.9,65.8,30.10,SSW,192,0.0,0.0,84,0.00,,,0.00,LWC V2.00 B2112,2013-05-31 04:07:00,
2013-05-31 00:12:00,70.9,66.2,30.10,SSW,192,0.0,0.0,85,0.00,,,0.00,LWC V2.00 B2112,2013-05-31 04:12:00,
2013-05-31 00:17:00,70.9,66.2,30.10,SSW,192,0.0,0.0,85,0.00,,,0.00,LWC V2.00 B2112,2013-05-31 04:17:00,
2013-05-31 00:22:00,70.9,66.2,30.10,SSW,192,0.0,0.0,85,0.00,,,0.00,LWC V2.00 B2112,2013-05-31 04:22:00,
2013-05-31 00:27:00,70.8,66.4,30.11,SSW,192,0.0,0.0,86,0.00,,,0.00,LWC V2.00 B2112,2013-05-31 04:27:00,
2013-05-31 00:32:00,70.8,66.7,30.11,SSW,192,0.0,0.0,87,0.00,,,0.00,LWC V2.00 B2112,2013-05-31 04:32:00,
2013-05-31 00:37:00,70.8,66.7,30.11,SSW,192,0.0,0.0,87,0.00,,,0.00,LWC V2.00 B2112,2013-05-31 04:37:00,
2013-05-31 00:42:00,70.8,66.7,30.11,East,101,0.0,0.0,87,0.00,,,0.00,LWC V2.00 B2112,2013-05-31 04:42:00,
2013-05-31 00:47:00,70.8,67.1,30.11,ESE,102,0.0,0.0,88,0.00,,,0.00,LWC V2.00 B2112,2013-05-31 04:47:00,
2013-05-31 00:52:00,70.8,67.1,30.11,ESE,102,0.0,0.0,88,0.00,,,0.00,LWC V2.00 B2112,2013-05-31 04:52:00,
2013-05-31 00:57:00,70.8,66.7,30.11,SSW,195,0.0,0.0,87,0.00,,,0.00,LWC V2.00 B2112,2013-05-31 04:57:00,
2013-05-31 01:02:00,70.9,66.8,30.11,SW,224,0.0,0.0,87,0.00,,,0.00,LWC V2.00 B2112,2013-05-31 05:02:00,
2013-05-31 01:07:00,70.9,66.8,30.11,SSW,201,0.0,0.0,87,0.00,,,0.00,LWC V2.00 B2112,2013-05-31 05:07:00,
2013-05-31 01:12:00,70.9,66.8,30.11,SSW,201,0.0,0.0,87,0.00,,,0.00,LWC V2.00 B2112,2013-05-31 05:12:00,
2013-05-31 01:17:00,71.1,66.7,30.11,South,177,0.0,0.0,86,0.00,,,0.00,LWC V2.00 B2112,2013-05-31 05:17:00,
2013-05-31 01:22:00,71.3,66.5,30.11,South,176,0.0,0.0,85,0.00,,,0.00,LWC V2.00 B2112,2013-05-31 05:22:00,
2013-05-31 01:27:00,71.3,66.2,30.11,ESE,105,0.0,0.0,84,0.00,,,0.00,LWC V2.00 B2112,2013-05-31 05:27:00,
2013-05-31 01:32:00,71.5,66.1,30.11,South,191,0.0,0.0,83,0.00,,,0.00,LWC V2.00 B2112,2013-05-31 05:32:00,
2013-05-31 01:37:00,71.6,66.2,30.11,SW,226,0.0,0.0,83,0.00,,,0.00,LWC V2.00 B2112,2013-05-31 05:37:00,
2013-05-31 01:42:00,71.6,66.2,30.11,SW,227,0.0,0.0,83,0.00,,,0.00,LWC V2.00 B2112,2013-05-31 05:42:00,
2013-05-31 01:47:00,71.6,66.2,30.11,SW,224,0.0,0.0,83,0.00,,,0.00,LWC V2.00 B2112,2013-05-31 05:47:00,
2013-05-31 01:52:00,71.6,65.8,30.11,SW,222,0.0,0.0,82,0.00,,,0.00,LWC V2.00 B2112,2013-05-31 05:52:00,
2013-05-31 01:57:00,71.6,65.8,30.11,South,169,0.0,0.0,82,0.00,,,0.00,LWC V2.00 B2112,2013-05-31 05:57:00,
2013-05-31 02:02:00,71.5,65.7,30.11,SSW,194,0.0,0.0,82,0.00,,,0.00,LWC V2.00 B2112,2013-05-31 06:02:00,
2013-05-31 02:07:00,71.5,65.7,30.11,SE,146,0.0,0.0,82,0.00,,,0.00,LWC V2.00 B2112,2013-05-31 06:07:00,
2013-05-31 02:12:00,71.3,65.5,30.11,SSE,165,0.0,0.0,82,0.00,,,0.00,LWC V2.00 B2112,2013-05-31 06:12:00,
2013-05-31 02:17:00,71.3,65.5,30.11,SE,143,0.0,0.0,82,0.00,,,0.00,LWC V2.00 B2112,2013-05-31 06:17:00,
2013-05-31 02:22:00,71.3,65.5,30.11,SW,217,0.0,0.0,82,0.00,,,0.00,LWC V2.00 B2112,2013-05-31 06:22:00,
2013-05-31 02:27:00,71.1,65.3,30.11,SW,231,0.0,0.0,82,0.00,,,0.00,LWC V2.00 B2112,2013-05-31 06:27:00,
2013-05-31 02:32:00,70.9,65.5,30.11,SE,134,0.0,0.0,83,0.00,,,0.00,LWC V2.00 B2112,2013-05-31 06:32:00,
2013-05-31 02:37:00,70.9,65.5,30.11,SW,224,0.0,0.0,83,0.00,,,0.00,LWC V2.00 B2112,2013-05-31 06:37:00,
2013-05-31 02:42:00,70.8,65.4,30.11,SW,231,0.0,0.0,83,0.00,,,0.00,LWC V2.00 B2112,2013-05-31 06:42:00,
2013-05-31 02:47:00,70.6,65.5,30.11,SW,230,0.0,0.0,84,0.00,,,0.00,LWC V2.00 B2112,2013-05-31 06:47:00,
2013-05-31 02:52:00,70.6,65.5,30.11,SW,229,0.0,0.0,84,0.00,,,0.00,LWC V2.00 B2112,2013-05-31 06:52:00,
2013-05-31 02:57:00,70.6,65.5,30.12,SSW,210,0.0,0.0,84,0.00,,,0.00,LWC V2.00 B2112,2013-05-31 06:57:00,
2013-05-31 03:02:00,70.4,65.3,30.12,SSW,210,0.0,0.0,84,0.00,,,0.00,LWC V2.00 B2112,2013-05-31 07:02:00,
2013-05-31 03:07:00,70.3,65.2,30.12,SSW,210,0.0,0.0,84,0.00,,,0.00,LWC V2.00 B2112,2013-05-31 07:07:00,
2013-05-31 03:12:00,70.1,65.4,30.12,SSW,210,0.0,0.0,85,0.00,,,0.00,LWC V2.00 B2112,2013-05-31 07:12:00,
2013-05-31 03:17:00,70.1,65.4,30.12,SSW,210,0.0,0.0,85,0.00,,,0.00,LWC V2.00 B2112,2013-05-31 07:17:00,
2013-05-31 03:22:00,69.9,65.5,30.12,SSW,210,0.0,0.0,86,0.00,,,0.00,LWC V2.00 B2112,2013-05-31 07:22:00,
2013-05-31 03:27:00,69.8,65.4,30.12,SSW,210,0.0,0.0,86,0.00,,,0.00,LWC V2.00 B2112,2013-05-31 07:27:00,
2013-05-31 03:32:00,69.8,65.7,30.12,SSW,210,0.0,0.0,87,0.00,,,0.00,LWC V2.00 B2112,2013-05-31 07:32:00,
2013-05-31 03:37:00,69.8,65.7,30.12,WNW,287,0.0,0.0,87,0.00,,,0.00,LWC V2.00 B2112,2013-05-31 07:37:00,
2013-05-31 03:42:00,69.9,65.5,30.12,WNW,287,0.0,0.0,86,0.00,,,0.00,LWC V2.00 B2112,2013-05-31 07:42:00,
2013-05-31 03:47:00,69.9,65.5,30.12,WSW,249,0.0,0.0,86,0.00,,,0.00,LWC V2.00 B2112,2013-05-31 07:47:00,
2013-05-31 03:52:00,69.9,65.5,30.12,South,176,0.0,0.0,86,0.00,,,0.00,LWC V2.00 B2112,2013-05-31 07:52:00,
2013-05-31 03:57:00,70.1,65.7,30.12,SSW,205,0.0,0.0,86,0.00,,,0.00,LWC V2.00 B2112,2013-05-31 07:57:00,
2013-05-31 04:02:00,69.9,65.5,30.12,SSW,205,0.0,0.0,86,0.00,,,0.00,LWC V2.00 B2112,2013-05-31 08:02:00,
2013-05-31 04:07:00,69.9,65.5,30.12,SSW,205,0.0,0.0,86,0.00,,,0.00,LWC V2.00 B2112,2013-05-31 08:07:00,
2013-05-31 04:12:00,69.8,65.4,30.12,SSW,205,0.0,0.0,86,0.00,,,0.00,LWC V2.00 B2112,2013-05-31 08:12:00,
2013-05-31 04:17:00,69.6,65.6,30.12,SSW,205,0.0,0.0,87,0.00,,,0.00,LWC V2.00 B2112,2013-05-31 08:17:00,
2013-05-31 04:22:00,69.4,65.4,30.12,SSW,205,0.0,0.0,87,0.00,,,0.00,LWC V2.00 B2112,2013-05-31 08:22:00,
2013-05-31 04:27:00,69.3,65.3,30.12,SSW,205,0.0,0.0,87,0.00,,,0.00,LWC V2.00 B2112,2013-05-31 08:27:00,
2013-05-31 04:32:00,69.1,65.4,30.12,SSW,205,0.0,0.0,88,0.00,,,0.00,LWC V2.00 B2112,2013-05-31 08:32:00,
2013-05-31 04:37:00,68.9,65.2,30.12,SSW,205,0.0,0.0,88,0.00,,,0.00,LWC V2.00 B2112,2013-05-31 08:37:00,
2013-05-31 04:42:00,68.8,65.4,30.12,SSW,205,0.0,0.0,89,0.00,,,0.00,LWC V2.00 B2112,2013-05-31 08:42:00,
2013-05-31 04:47:00,68.6,65.2,30.12,SSW,206,0.0,0.0,89,0.00,,,0.00,LWC V2.00 B2112,2013-05-31 08:47:00,
2013-05-31 04:52:00,68.4,65.3,30.12,SSW,205,0.0,0.0,90,0.00,,,0.00,LWC V2.00 B2112,2013-05-31 08:52:00,
2013-05-31 04:57:00,68.3,65.2,30.12,SSW,205,0.0,0.0,90,0.00,,,0.00,LWC V2.00 B2112,2013-05-31 08:57:00,
2013-05-31 05:02:00,68.1,65.4,30.12,WNW,290,0.0,0.0,91,0.00,,,0.00,LWC V2.00 B2112,2013-05-31 09:02:00,
2013-05-31 05:07:00,67.9,65.2,30.12,WNW,290,0.0,0.0,91,0.00,,,0.00,LWC V2.00 B2112,2013-05-31 09:07:00,
2013-05-31 05:12:00,67.8,65.1,30.12,WNW,290,0.0,0.0,91,0.00,,,0.00,LWC V2.00 B2112,2013-05-31 09:12:00,
2013-05-31 05:17:00,67.6,65.2,30.12,WNW,290,0.0,0.0,92,0.00,,,0.00,LWC V2.00 B2112,2013-05-31 09:17:00,
2013-05-31 05:22:00,67.4,65.0,30.12,WNW,290,0.0,0.0,92,0.00,,,0.00,LWC V2.00 B2112,2013-05-31 09:22:00,
2013-05-31 05:27:00,67.4,65.3,30.12,WNW,290,0.0,0.0,93,0.00,,,0.00,LWC V2.00 B2112,2013-05-31 09:27:00,
2013-05-31 05:32:00,67.4,65.3,30.12,WNW,290,0.0,0.0,93,0.00,,,0.00,LWC V2.00 B2112,2013-05-31 09:32:00,
2013-05-31 05:37:00,67.4,65.3,30.12,WNW,290,0.0,0.0,93,0.00,,,0.00,LWC V2.00 B2112,2013-05-31 09:37:00,
2013-05-31 05:42:00,67.4,65.6,30.12,WNW,289,0.0,0.0,94,0.00,,,0.00,LWC V2.00 B2112,2013-05-31 09:42:00,
2013-05-31 05:47:00,67.4,65.6,30.12,WNW,289,0.0,0.0,94,0.00,,,0.00,LWC V2.00 B2112,2013-05-31 09:47:00,
2013-05-31 05:52:00,67.1,65.3,30.12,WNW,289,0.0,0.0,94,0.00,,,0.00,LWC V2.00 B2112,2013-05-31 09:52:00,
2013-05-31 05:57:00,67.1,65.3,30.13,WNW,286,0.0,0.0,94,0.00,,,0.00,LWC V2.00 B2112,2013-05-31 09:57:00,
2013-05-31 06:02:00,67.1,65.3,30.13,WNW,286,0.0,0.0,94,0.00,,,0.00,LWC V2.00 B2112,2013-05-31 10:02:00,
2013-05-31 06:07:00,66.9,65.1,30.13,WNW,286,0.0,0.0,94,0.00,,,0.00,LWC V2.00 B2112,2013-05-31 10:07:00,
2013-05-31 06:12:00,66.8,65.0,30.13,WNW,286,0.0,0.0,94,0.00,,,0.00,LWC V2.00 B2112,2013-05-31 10:12:00,
2013-05-31 06:17:00,66.6,65.1,30.13,WNW,286,0.0,0.0,95,0.00,,,0.00,LWC V2.00 B2112,2013-05-31 10:17:00,
2013-05-31 06:22:00,66.4,64.9,30.13,WNW,286,0.0,0.0,95,0.00,,,0.00,LWC V2.00 B2112,2013-05-31 10:22:00,
2013-05-31 06:27:00,66.3,64.8,30.14,WNW,286,0.0,0.0,95,0.00,,,0.00,LWC V2.00 B2112,2013-05-31 10:27:00,
2013-05-31 06:32:00,66.3,64.8,30.14,WNW,286,0.0,0.0,95,0.00,,,0.00,LWC V2.00 B2112,2013-05-31 10:32:00,
2013-05-31 06:37:00,66.4,65.2,30.14,WNW,286,0.0,0.0,96,0.00,,,0.00,LWC V2.00 B2112,2013-05-31 10:37:00,
2013-05-31 06:42:00,66.6,65.4,30.14,WNW,286,0.0,0.0,96,0.00,,,0.00,LWC V2.00 B2112,2013-05-31 10:42:00,
2013-05-31 06:47:00,66.8,65.6,30.14,WNW,286,0.0,0.0,96,0.00,,,0.00,LWC V2.00 B2112,2013-05-31 10:47:00,
2013-05-31 06:52:00,66.9,65.7,30.14,WNW,286,0.0,0.0,96,0.00,,,0.00,LWC V2.00 B2112,2013-05-31 10:52:00,
2013-05-31 06:57:00,67.1,65.9,30.14,WNW,286,0.0,0.0,96,0.00,,,0.00,LWC V2.00 B2112,2013-05-31 10:57:00,
2013-05-31 07:02:00,67.3,66.4,30.14,WNW,286,0.0,0.0,97,0.00,,,0.00,LWC V2.00 B2112,2013-05-31 11:02:00,
2013-05-31 07:07:00,67.4,66.2,30.14,WNW,286,0.0,0.0,96,0.00,,,0.00,LWC V2.00 B2112,2013-05-31 11:07:00,
2013-05-31 07:12:00,67.4,66.2,30.14,WNW,286,0.0,0.0,96,0.00,,,0.00,LWC V2.00 B2112,2013-05-31 11:12:00,
2013-05-31 07:17:00,67.6,66.4,30.14,WNW,286,0.0,0.0,96,0.00,,,0.00,LWC V2.00 B2112,2013-05-31 11:17:00,
2013-05-31 07:22:00,67.9,66.7,30.14,South,169,0.0,0.0,96,0.00,,,0.00,LWC V2.00 B2112,2013-05-31 11:22:00,
2013-05-31 07:27:00,68.1,66.9,30.14,South,169,0.0,0.0,96,0.00,,,0.00,LWC V2.00 B2112,2013-05-31 11:27:00,
2013-05-31 07:32:00,68.3,67.1,30.14,SSE,161,0.0,0.0,96,0.00,,,0.00,LWC V2.00 B2112,2013-05-31 11:32:00,
2013-05-31 07:37:00,68.4,67.2,30.14,SSE,161,0.0,0.0,96,0.00,,,0.00,LWC V2.00 B2112,2013-05-31 11:37:00,
2013-05-31 07:42:00,68.6,67.1,30.14,WNW,286,0.0,0.0,95,0.00,,,0.00,LWC V2.00 B2112,2013-05-31 11:42:00,
2013-05-31 07:47:00,68.8,67.3,30.14,West,278,0.0,0.0,95,0.00,,,0.00,LWC V2.00 B2112,2013-05-31 11:47:00,
2013-05-31 07:52:00,69.1,67.6,30.14,SSW,205,0.0,0.0,95,0.00,,,0.00,LWC V2.00 B2112,2013-05-31 11:52:00,
2013-05-31 07:57:00,69.4,67.6,30.14,SW,215,0.0,4.0,94,0.00,,,0.00,LWC V2.00 B2112,2013-05-31 11:57:00,
2013-05-31 08:02:00,69.6,67.5,30.14,SSW,212,0.0,0.0,93,0.00,,,0.00,LWC V2.00 B2112,2013-05-31 12:02:00,
2013-05-31 08:07:00,69.8,67.7,30.14,West,273,0.0,0.0,93,0.00,,,0.00,LWC V2.00 B2112,2013-05-31 12:07:00,
2013-05-31 08:12:00,70.4,68.0,30.14,SW,217,0.0,0.0,92,0.00,,,0.00,LWC V2.00 B2112,2013-05-31 12:12:00,
2013-05-31 08:17:00,70.8,68.4,30.14,WNW,290,0.0,0.0,92,0.00,,,0.00,LWC V2.00 B2112,2013-05-31 12:17:00,
2013-05-31 08:22:00,71.3,68.5,30.14,SW,231,0.0,0.0,91,0.00,,,0.00,LWC V2.00 B2112,2013-05-31 12:22:00,
2013-05-31 08:27:00,71.6,68.2,30.14,West,278,0.0,0.0,89,0.00,,,0.00,LWC V2.00 B2112,2013-05-31 12:27:00,
2013-05-31 08:32:00,72.0,68.6,30.14,WSW,257,0.0,0.0,89,0.00,,,0.00,LWC V2.00 B2112,2013-05-31 12:32:00,
2013-05-31 08:37:00,72.5,68.7,30.14,WSW,240,0.0,0.0,88,0.00,,,0.00,LWC V2.00 B2112,2013-05-31 12:37:00,
2013-05-31 08:42:00,72.8,68.7,30.14,NW,307,0.0,0.0,87,0.00,,,0.00,LWC V2.00 B2112,2013-05-31 12:42:00,
2013-05-31 08:47:00,73.3,68.5,30.14,SSW,202,0.0,0.0,85,0.00,,,0.00,LWC V2.00 B2112,2013-05-31 12:47:00,
2013-05-31 08:52:00,73.9,68.4,30.14,SW,223,0.0,0.0,83,0.00,,,0.00,LWC V2.00 B2112,2013-05-31 12:52:00,
2013-05-31 08:57:00,74.6,69.4,30.14,WSW,257,0.0,0.0,84,0.00,,,0.00,LWC V2.00 B2112,2013-05-31 12:57:00,
2013-05-31 09:02:00,74.9,68.7,30.14,SSW,207,0.0,0.0,81,0.00,,,0.00,LWC V2.00 B2112,2013-05-31 13:02:00,
2013-05-31 09:07:00,75.4,68.8,30.14,South,171,0.0,0.0,80,0.00,,,0.00,LWC V2.00 B2112,2013-05-31 13:07:00,
2013-05-31 09:12:00,75.8,69.5,30.14,SSE,167,0.0,0.0,81,0.00,,,0.00,LWC V2.00 B2112,2013-05-31 13:12:00,
2013-05-31 09:17:00,76.1,69.8,30.14,NW,321,0.0,0.0,81,0.00,,,0.00,LWC V2.00 B2112,2013-05-31 13:17:00,
2013-05-31 09:22:00,76.7,69.7,30.14,SSW,207,0.0,0.0,79,0.00,,,0.00,LWC V2.00 B2112,2013-05-31 13:22:00,
2013-05-31 09:27:00,77.4,70.0,30.14,SSW,210,0.0,0.0,78,0.00,,,0.00,LWC V2.00 B2112,2013-05-31 13:27:00,
2013-05-31 09:32:00,77.7,69.1,30.14,South,186,0.0,0.0,75,0.00,,,0.00,LWC V2.00 B2112,2013-05-31 13:32:00,
2013-05-31 09:37:00,77.7,68.7,30.14,WNW,293,0.0,0.0,74,0.00,,,0.00,LWC V2.00 B2112,2013-05-31 13:37:00,
2013-05-31 09:47:00,78.1,69.1,30.14,WNW,288,0.0,0.0,74,0.00,,,0.00,LWC V2.00 B2112,2013-05-31 13:47:00,
2013-05-31 09:52:00,78.3,68.5,30.14,NW,321,0.0,0.0,72,0.00,,,0.00,LWC V2.00 B2112,2013-05-31 13:52:00,
2013-05-31 09:57:00,78.5,69.1,30.14,West,262,0.0,0.0,73,0.00,,,0.00,LWC V2.00 B2112,2013-05-31 13:57:00,
2013-05-31 10:07:00,78.6,68.0,30.14,SSW,209,0.0,1.0,70,0.00,,,0.00,LWC V2.00 B2112,2013-05-31 14:07:00,
2013-05-31 10:12:00,78.6,68.0,30.14,ENE,58,0.0,0.0,70,0.00,,,0.00,LWC V2.00 B2112,2013-05-31 14:12:00,
2013-05-31 10:17:00,78.6,68.8,30.14,SW,225,0.0,0.0,72,0.00,,,0.00,LWC V2.00 B2112,2013-05-31 14:17:00,
2013-05-31 10:22:00,79.0,68.4,30.14,SW,224,0.0,0.0,70,0.00,,,0.00,LWC V2.00 B2112,2013-05-31 14:22:00,
2013-05-31 10:27:00,79.4,68.7,30.14,WSW,245,0.0,0.0,70,0.00,,,0.00,LWC V2.00 B2112,2013-05-31 14:27:00,
2013-05-31 10:32:00,79.9,67.9,30.14,WSW,248,0.0,0.0,67,0.00,,,0.00,LWC V2.00 B2112,2013-05-31 14:32:00,
2013-05-31 10:37:00,80.3,67.0,30.14,SW,228,0.0,0.0,64,0.00,,,0.00,LWC V2.00 B2112,2013-05-31 14:37:00,
2013-05-31 10:42:00,80.5,67.6,30.14,WSW,248,0.0,3.0,65,0.00,,,0.00,LWC V2.00 B2112,2013-05-31 14:42:00,
2013-05-31 10:52:00,79.9,67.1,30.14,SE,146,0.0,0.0,65,0.00,,,0.00,LWC V2.00 B2112,2013-05-31 14:52:00,
2013-05-31 10:57:00,79.6,67.2,30.15,SW,217,0.0,0.0,66,0.00,,,0.00,LWC V2.00 B2112,2013-05-31 14:57:00,
2013-05-31 11:02:00,80.3,66.5,30.15,WNW,288,0.0,1.0,63,0.00,,,0.00,LWC V2.00 B2112,2013-05-31 15:02:00,
2013-05-31 11:07:00,80.9,66.6,30.15,West,272,0.0,0.0,62,0.00,,,0.00,LWC V2.00 B2112,2013-05-31 15:07:00,
2013-05-31 11:12:00,80.3,66.5,30.14,WNW,293,0.0,0.0,63,0.00,,,0.00,LWC V2.00 B2112,2013-05-31 15:12:00,
2013-05-31 11:17:00,80.3,67.0,30.14,WNW,287,0.0,0.0,64,0.00,,,0.00,LWC V2.00 B2112,2013-05-31 15:17:00,
2013-05-31 11:22:00,79.8,65.6,30.14,SSW,205,0.0,4.0,62,0.00,,,0.00,LWC V2.00 B2112,2013-05-31 15:22:00,
2013-05-31 11:27:00,79.6,66.8,30.14,SW,214,0.0,0.0,65,0.00,,,0.00,LWC V2.00 B2112,2013-05-31 15:27:00,
2013-05-31 11:32:00,80.1,65.9,30.14,South,191,0.0,5.0,62,0.00,,,0.00,LWC V2.00 B2112,2013-05-31 15:32:00,
2013-05-31 11:37:00,80.1,66.8,30.14,SSW,198,0.0,0.0,64,0.00,,,0.00,LWC V2.00 B2112,2013-05-31 15:37:00,
2013-05-31 11:42:00,80.7,66.9,30.14,SSW,198,0.0,0.0,63,0.00,,,0.00,LWC V2.00 B2112,2013-05-31 15:42:00,
2013-05-31 11:47:00,80.7,66.0,30.14,WSW,245,0.0,7.0,61,0.00,,,0.00,LWC V2.00 B2112,2013-05-31 15:47:00,
2013-05-31 11:52:00,80.3,66.5,30.14,West,259,0.0,0.0,63,0.00,,,0.00,LWC V2.00 B2112,2013-05-31 15:52:00,
2013-05-31 11:57:00,80.7,66.0,30.14,West,278,0.0,0.0,61,0.00,,,0.00,LWC V2.00 B2112,2013-05-31 15:57:00,
2013-05-31 12:02:00,81.2,66.0,30.14,WNW,297,0.0,1.0,60,0.00,,,0.00,LWC V2.00 B2112,2013-05-31 16:02:00,
2013-05-31 12:07:00,81.8,64.5,30.14,ESE,119,0.0,1.0,56,0.00,,,0.00,LWC V2.00 B2112,2013-05-31 16:07:00,
2013-05-31 12:12:00,82.4,64.1,30.13,SW,217,0.0,0.0,54,0.00,,,0.00,LWC V2.00 B2112,2013-05-31 16:12:00,
2013-05-31 12:17:00,82.8,65.0,30.13,West,276,0.0,5.0,55,0.00,,,0.00,LWC V2.00 B2112,2013-05-31 16:17:00,
2013-05-31 12:22:00,82.6,64.8,30.13,South,190,0.0,0.0,55,0.00,,,0.00,LWC V2.00 B2112,2013-05-31 16:22:00,
2013-05-31 12:27:00,82.2,66.4,30.13,WNW,297,0.0,0.0,59,0.00,,,0.00,LWC V2.00 B2112,2013-05-31 16:27:00,
2013-05-31 12:32:00,81.8,65.6,30.13,WSW,248,0.0,6.0,58,0.00,,,0.00,LWC V2.00 B2112,2013-05-31 16:32:00,
2013-05-31 12:37:00,82.2,65.9,30.13,SSW,209,0.0,0.0,58,0.00,,,0.00,LWC V2.00 B2112,2013-05-31 16:37:00,
2013-05-31 12:42:00,82.6,65.3,30.13,SSE,148,0.0,2.0,56,0.00,,,0.00,LWC V2.00 B2112,2013-05-31 16:42:00,
2013-05-31 12:47:00,82.2,64.9,30.13,SSW,205,0.0,1.0,56,0.00,,,0.00,LWC V2.00 B2112,2013-05-31 16:47:00,
2013-05-31 12:52:00,82.2,64.9,30.13,SW,214,0.0,5.0,56,0.00,,,0.00,LWC V2.00 B2112,2013-05-31 16:52:00,
2013-05-31 12:57:00,82.6,67.3,30.13,ENE,74,0.0,0.0,60,0.00,,,0.00,LWC V2.00 B2112,2013-05-31 16:57:00,
2013-05-31 13:02:00,82.8,65.5,30.13,West,278,0.0,0.0,56,0.00,,,0.00,LWC V2.00 B2112,2013-05-31 17:02:00,
2013-05-31 13:07:00,82.8,65.5,30.13,SW,234,0.0,0.0,56,0.00,,,0.00,LWC V2.00 B2112,2013-05-31 17:07:00,
2013-05-31 13:12:00,83.0,64.1,30.12,WSW,248,0.0,0.0,53,0.00,,,0.00,LWC V2.00 B2112,2013-05-31 17:12:00,
2013-05-31 13:17:00,82.8,65.0,30.12,WSW,245,0.0,0.0,55,0.00,,,0.00,LWC V2.00 B2112,2013-05-31 17:17:00,
2013-05-31 13:22:00,83.2,65.8,30.12,SW,226,0.0,0.0,56,0.00,,,0.00,LWC V2.00 B2112,2013-05-31 17:22:00,
2013-05-31 13:27:00,83.4,65.5,30.12,WSW,245,0.0,0.0,55,0.00,,,0.00,LWC V2.00 B2112,2013-05-31 17:27:00,
2013-05-31 13:32:00,83.8,64.3,30.12,WNW,283,0.0,3.0,52,0.00,,,0.00,LWC V2.00 B2112,2013-05-31 17:32:00,
2013-05-31 13:37:00,84.3,66.3,30.12,SSW,205,0.0,9.0,55,0.00,,,0.00,LWC V2.00 B2112,2013-05-31 17:37:00,
2013-05-31 13:42:00,84.5,65.5,30.11,SSW,207,0.0,0.0,53,0.00,,,0.00,LWC V2.00 B2112,2013-05-31 17:42:00,
2013-05-31 13:47:00,84.3,65.3,30.11,SSW,209,0.0,0.0,53,0.00,,,0.00,LWC V2.00 B2112,2013-05-31 17:47:00,
2013-05-31 13:52:00,84.5,68.1,30.11,NNE,32,0.0,0.0,58,0.00,,,0.00,LWC V2.00 B2112,2013-05-31 17:52:00,
2013-05-31 13:57:00,84.1,66.2,30.10,SW,221,0.0,0.0,55,0.00,,,0.00,LWC V2.00 B2112,2013-05-31 17:57:00,
2013-05-31 14:02:00,83.6,64.6,30.10,WSW,250,0.0,0.0,53,0.00,,,0.00,LWC V2.00 B2112,2013-05-31 18:02:00,
2013-05-31 14:07:00,84.0,65.0,30.10,SSE,155,0.0,0.0,53,0.00,,,0.00,LWC V2.00 B2112,2013-05-31 18:07:00,
2013-05-31 14:12:00,84.5,64.4,30.10,SSW,207,0.0,0.0,51,0.00,,,0.00,LWC V2.00 B2112,2013-05-31 18:12:00,
2013-05-31 14:17:00,84.7,65.6,30.10,WSW,252,0.0,5.0,53,0.00,,,0.00,LWC V2.00 B2112,2013-05-31 18:17:00,
2013-05-31 14:22:00,84.9,64.2,30.10,SE,146,0.0,0.0,50,0.00,,,0.00,LWC V2.00 B2112,2013-05-31 18:22:00,
2013-05-31 14:27:00,85.3,65.6,30.10,SW,236,0.0,0.0,52,0.00,,,0.00,LWC V2.00 B2112,2013-05-31 18:27:00,
2013-05-31 14:32:00,85.7,66.6,30.10,SW,217,0.0,6.0,53,0.00,,,0.00,LWC V2.00 B2112,2013-05-31 18:32:00,
2013-05-31 14:37:00,85.3,63.3,30.10,SSW,203,0.0,0.0,48,0.00,,,0.00,LWC V2.00 B2112,2013-05-31 18:37:00,
2013-05-31 14:42:00,85.1,63.8,30.09,WNW,296,0.0,0.0,49,0.00,,,0.00,LWC V2.00 B2112,2013-05-31 18:42:00,
2013-05-31 14:47:00,85.5,64.7,30.09,South,186,0.0,0.0,50,0.00,,,0.00,LWC V2.00 B2112,2013-05-31 18:47:00,
2013-05-31 14:52:00,85.1,66.0,30.09,West,262,0.0,2.0,53,0.00,,,0.00,LWC V2.00 B2112,2013-05-31 18:52:00,
2013-05-31 14:57:00,84.7,62.8,30.09,WSW,246,0.0,10.0,48,0.00,,,0.00,LWC V2.00 B2112,2013-05-31 18:57:00,
2013-05-31 15:02:00,84.7,62.8,30.09,WNW,300,0.0,4.0,48,0.00,,,0.00,LWC V2.00 B2112,2013-05-31 19:02:00,
2013-05-31 15:07:00,84.9,64.2,30.09,SSW,209,0.0,0.0,50,0.00,,,0.00,LWC V2.00 B2112,2013-05-31 19:07:00,
2013-05-31 15:12:00,85.1,62.6,30.08,SSW,209,0.0,8.0,47,0.00,,,0.00,LWC V2.00 B2112,2013-05-31 19:12:00,
2013-05-31 15:17:00,85.3,63.9,30.08,WSW,249,0.0,0.0,49,0.00,,,0.00,LWC V2.00 B2112,2013-05-31 19:17:00,
2013-05-31 15:22:00,85.7,62.5,30.08,South,170,0.0,0.0,46,0.00,,,0.00,LWC V2.00 B2112,2013-05-31 19:22:00,
2013-05-31 15:27:00,86.1,62.2,30.07,SSE,154,0.0,3.0,45,0.00,,,0.00,LWC V2.00 B2112,2013-05-31 19:27:00,
2013-05-31 15:32:00,85.9,63.3,30.07,West,268,0.0,4.0,47,0.00,,,0.00,LWC V2.00 B2112,2013-05-31 19:32:00,
2013-05-31 15:37:00,86.1,61.6,30.07,SE,143,0.0,0.0,44,0.00,,,0.00,LWC V2.00 B2112,2013-05-31 19:37:00,
2013-05-31 15:42:00,86.3,62.4,30.07,SW,217,0.0,0.0,45,0.00,,,0.00,LWC V2.00 B2112,2013-05-31 19:42:00,
2013-05-31 15:47:00,86.5,63.2,30.07,SSE,164,0.0,1.0,46,0.00,,,0.00,LWC V2.00 B2112,2013-05-31 19:47:00,
2013-05-31 15:52:00,86.5,62.0,30.07,SSW,210,0.0,0.0,44,0.00,,,0.00,LWC V2.00 B2112,2013-05-31 19:52:00,
2013-05-31 15:57:00,86.7,64.0,30.06,SSE,160,0.0,0.0,47,0.00,,,0.00,LWC V2.00 B2112,2013-05-31 19:57:00,
2013-05-31 16:02:00,86.7,64.6,30.06,SSE,153,0.0,0.0,48,0.00,,,0.00,LWC V2.00 B2112,2013-05-31 20:02:00,
2013-05-31 16:07:00,86.5,61.3,30.06,South,174,0.0,0.0,43,0.00,,,0.00,LWC V2.00 B2112,2013-05-31 20:07:00,
2013-05-31 16:12:00,86.5,62.0,30.05,SSW,196,0.0,0.0,44,0.00,,,0.00,LWC V2.00 B2112,2013-05-31 20:12:00,
2013-05-31 16:17:00,86.5,62.0,30.05,WSW,243,0.0,0.0,44,0.00,,,0.00,LWC V2.00 B2112,2013-05-31 20:17:00,
2013-05-31 16:22:00,87.0,64.9,30.05,SSW,212,0.0,0.0,48,0.00,,,0.00,LWC V2.00 B2112,2013-05-31 20:22:00,
2013-05-31 16:27:00,87.2,61.9,30.04,WSW,245,0.0,0.0,43,0.00,,,0.00,LWC V2.00 B2112,2013-05-31 20:27:00,
2013-05-31 16:32:00,87.6,63.0,30.04,WSW,244,0.0,0.0,44,0.00,,,0.00,LWC V2.00 B2112,2013-05-31 20:32:00,
2013-05-31 16:37:00,87.2,62.6,30.04,SSW,207,0.0,0.0,44,0.00,,,0.00,LWC V2.00 B2112,2013-05-31 20:37:00,
2013-05-31 16:42:00,86.3,61.1,30.04,South,191,0.0,0.0,43,0.00,,,0.00,LWC V2.00 B2112,2013-05-31 20:42:00,
2013-05-31 16:47:00,85.9,63.9,30.04,WSW,243,0.0,0.0,48,0.00,,,0.00,LWC V2.00 B2112,2013-05-31 20:47:00,
2013-05-31 16:52:00,85.5,62.3,30.04,SSW,211,0.0,0.0,46,0.00,,,0.00,LWC V2.00 B2112,2013-05-31 20:52:00,
2013-05-31 16:57:00,85.5,61.7,30.04,SSW,198,0.0,0.0,45,0.00,,,0.00,LWC V2.00 B2112,2013-05-31 20:57:00,
2013-05-31 17:02:00,85.9,63.9,30.04,SSE,164,0.0,0.0,48,0.00,,,0.00,LWC V2.00 B2112,2013-05-31 21:02:00,
2013-05-31 17:07:00,86.5,64.4,30.04,West,267,0.0,0.0,48,0.00,,,0.00,LWC V2.00 B2112,2013-05-31 21:07:00,
2013-05-31 17:12:00,86.5,62.6,30.04,SSW,200,0.0,2.0,45,0.00,,,0.00,LWC V2.00 B2112,2013-05-31 21:12:00,
2013-05-31 17:17:00,86.3,63.7,30.04,SSW,210,0.0,4.0,47,0.00,,,0.00,LWC V2.00 B2112,2013-05-31 21:17:00,
2013-05-31 17:22:00,86.3,63.0,30.04,WSW,248,0.0,0.0,46,0.00,,,0.00,LWC V2.00 B2112,2013-05-31 21:22:00,
2013-05-31 17:27:00,86.5,62.6,30.04,SSW,193,0.0,1.0,45,0.00,,,0.00,LWC V2.00 B2112,2013-05-31 21:27:00,
2013-05-31 17:32:00,86.5,63.8,30.04,SSW,211,0.0,0.0,47,0.00,,,0.00,LWC V2.00 B2112,2013-05-31 21:32:00,
2013-05-31 17:37:00,86.5,63.2,30.04,WSW,257,0.0,0.0,46,0.00,,,0.00,LWC V2.00 B2112,2013-05-31 21:37:00,
2013-05-31 17:42:00,86.7,65.8,30.03,WNW,282,0.0,0.0,50,0.00,,,0.00,LWC V2.00 B2112,2013-05-31 21:42:00,
2013-05-31 17:47:00,86.7,62.8,30.03,WNW,289,0.0,6.0,45,0.00,,,0.00,LWC V2.00 B2112,2013-05-31 21:47:00,
2013-05-31 17:52:00,86.3,64.9,30.03,SSE,150,0.0,0.0,49,0.00,,,0.00,LWC V2.00 B2112,2013-05-31 21:52:00,
2013-05-31 17:57:00,86.1,62.9,30.03,SSW,212,0.0,0.0,46,0.00,,,0.00,LWC V2.00 B2112,2013-05-31 21:57:00,
2013-05-31 18:02:00,86.1,63.5,30.03,SE,128,0.0,0.0,47,0.00,,,0.00,LWC V2.00 B2112,2013-05-31 22:02:00,
2013-05-31 18:07:00,86.1,64.1,30.03,West,262,0.0,0.0,48,0.00,,,0.00,LWC V2.00 B2112,2013-05-31 22:07:00,
2013-05-31 18:12:00,86.1,62.9,30.03,SW,216,0.0,0.0,46,0.00,,,0.00,LWC V2.00 B2112,2013-05-31 22:12:00,
2013-05-31 18:17:00,85.9,62.7,30.03,SSW,210,0.0,0.0,46,0.00,,,0.00,LWC V2.00 B2112,2013-05-31 22:17:00,
2013-05-31 18:22:00,85.7,63.7,30.03,SSE,148,0.0,0.0,48,0.00,,,0.00,LWC V2.00 B2112,2013-05-31 22:22:00,
2013-05-31 18:27:00,85.7,64.3,30.03,SSW,193,0.0,0.0,49,0.00,,,0.00,LWC V2.00 B2112,2013-05-31 22:27:00,
2013-05-31 18:32:00,85.5,63.5,30.03,SSW,213,0.0,0.0,48,0.00,,,0.00,LWC V2.00 B2112,2013-05-31 22:32:00,
2013-05-31 18:37:00,85.5,64.1,30.03,SW,231,0.0,0.0,49,0.00,,,0.00,LWC V2.00 B2112,2013-05-31 22:37:00,
2013-05-31 18:42:00,85.1,64.3,30.03,SE,135,0.0,0.0,50,0.00,,,0.00,LWC V2.00 B2112,2013-05-31 22:42:00,
2013-05-31 18:47:00,84.9,64.7,30.03,SSW,208,0.0,0.0,51,0.00,,,0.00,LWC V2.00 B2112,2013-05-31 22:47:00,
2013-05-31 18:52:00,84.7,64.0,30.03,SSW,208,0.0,0.0,50,0.00,,,0.00,LWC V2.00 B2112,2013-05-31 22:52:00,
2013-05-31 18:57:00,84.7,64.5,30.03,WNW,298,0.0,0.0,51,0.00,,,0.00,LWC V2.00 B2112,2013-05-31 22:57:00,
2013-05-31 19:02:00,84.0,63.9,30.03,West,273,0.0,0.0,51,0.00,,,0.00,LWC V2.00 B2112,2013-05-31 23:02:00,
2013-05-31 19:07:00,83.4,64.4,30.03,West,273,0.0,0.0,53,0.00,,,0.00,LWC V2.00 B2112,2013-05-31 23:07:00,
2013-05-31 19:12:00,83.0,64.6,30.03,West,273,0.0,0.0,54,0.00,,,0.00,LWC V2.00 B2112,2013-05-31 23:12:00,
2013-05-31 19:17:00,82.6,65.3,30.03,West,273,0.0,0.0,56,0.00,,,0.00,LWC V2.00 B2112,2013-05-31 23:17:00,
2013-05-31 19:22:00,82.2,64.4,30.03,West,273,0.0,0.0,55,0.00,,,0.00,LWC V2.00 B2112,2013-05-31 23:22:00,
2013-05-31 19:27:00,81.8,65.6,30.03,West,273,0.0,0.0,58,0.00,,,0.00,LWC V2.00 B2112,2013-05-31 23:27:00,
2013-05-31 19:32:00,81.4,65.7,30.03,West,273,0.0,0.0,59,0.00,,,0.00,LWC V2.00 B2112,2013-05-31 23:32:00,
2013-05-31 19:37:00,81.1,66.4,30.03,West,273,0.0,0.0,61,0.00,,,0.00,LWC V2.00 B2112,2013-05-31 23:37:00,
2013-05-31 19:42:00,80.7,66.0,30.03,West,265,0.0,0.0,61,0.00,,,0.00,LWC V2.00 B2112,2013-05-31 23:42:00,
2013-05-31 19:47:00,80.1,66.3,30.03,West,265,0.0,0.0,63,0.00,,,0.00,LWC V2.00 B2112,2013-05-31 23:47:00,
2013-05-31 19:52:00,79.6,66.8,30.03,West,265,0.0,0.0,65,0.00,,,0.00,LWC V2.00 B2112,2013-05-31 23:52:00,
2013-05-31 19:57:00,78.8,66.5,30.02,West,265,0.0,0.0,66,0.00,,,0.00,LWC V2.00 B2112,2013-05-31 23:57:00,
2013-05-31 20:02:00,78.1,66.7,30.02,West,265,0.0,0.0,68,0.00,,,0.00,LWC V2.00 B2112,2013-06-01 00:02:00,
2013-05-31 20:07:00,77.6,67.0,30.02,West,265,0.0,0.0,70,0.00,,,0.00,LWC V2.00 B2112,2013-06-01 00:07:00,
2013-05-31 20:12:00,77.2,66.6,30.02,West,265,0.0,0.0,70,0.00,,,0.00,LWC V2.00 B2112,2013-06-01 00:12:00,
2013-05-31 20:17:00,76.8,66.3,30.02,West,265,0.0,0.0,70,0.00,,,0.00,LWC V2.00 B2112,2013-06-01 00:17:00,
2013-05-31 20:22:00,76.5,66.4,30.02,West,265,0.0,0.0,71,0.00,,,0.00,LWC V2.00 B2112,2013-06-01 00:22:00,
2013-05-31 20:27:00,76.1,66.8,30.02,West,265,0.0,0.0,73,0.00,,,0.00,LWC V2.00 B2112,2013-06-01 00:27:00,
2013-05-31 20:32:00,75.6,66.7,30.02,West,265,0.0,0.0,74,0.00,,,0.00,LWC V2.00 B2112,2013-06-01 00:32:00,
2013-05-31 20:37:00,75.1,66.6,30.02,West,265,0.0,0.0,75,0.00,,,0.00,LWC V2.00 B2112,2013-06-01 00:37:00,
2013-05-31 20:42:00,74.6,66.5,30.03,West,265,0.0,0.0,76,0.00,,,0.00,LWC V2.00 B2112,2013-06-01 00:42:00,
2013-05-31 20:47:00,74.2,66.1,30.03,West,265,0.0,0.0,76,0.00,,,0.00,LWC V2.00 B2112,2013-06-01 00:47:00,
2013-05-31 20:52:00,74.0,65.9,30.03,West,265,0.0,0.0,76,0.00,,,0.00,LWC V2.00 B2112,2013-06-01 00:52:00,
2013-05-31 20:57:00,73.7,66.0,30.03,West,265,0.0,0.0,77,0.00,,,0.00,LWC V2.00 B2112,2013-06-01 00:57:00,
2013-05-31 21:02:00,73.3,66.0,30.03,West,265,0.0,0.0,78,0.00,,,0.00,LWC V2.00 B2112,2013-06-01 01:02:00,
2013-05-31 21:07:00,73.0,65.7,30.03,West,265,0.0,0.0,78,0.00,,,0.00,LWC V2.00 B2112,2013-06-01 01:07:00,
2013-05-31 21:12:00,72.8,65.9,30.03,West,265,0.0,0.0,79,0.00,,,0.00,LWC V2.00 B2112,2013-06-01 01:12:00,
2013-05-31 21:17:00,72.7,65.8,30.03,West,265,0.0,0.0,79,0.00,,,0.00,LWC V2.00 B2112,2013-06-01 01:17:00,
2013-05-31 21:22:00,72.5,66.0,30.03,West,265,0.0,0.0,80,0.00,,,0.00,LWC V2.00 B2112,2013-06-01 01:22:00,
2013-05-31 21:27:00,72.3,65.8,30.03,West,265,0.0,0.0,80,0.00,,,0.00,LWC V2.00 B2112,2013-06-01 01:27:00,
2013-05-31 21:32:00,72.1,65.9,30.03,West,265,0.0,0.0,81,0.00,,,0.00,LWC V2.00 B2112,2013-06-01 01:32:00,
2013-05-31 21:37:00,72.1,65.9,30.03,West,265,0.0,0.0,81,0.00,,,0.00,LWC V2.00 B2112,2013-06-01 01:37:00,
2013-05-31 21:42:00,72.1,65.9,30.04,West,265,0.0,0.0,81,0.00,,,0.00,LWC V2.00 B2112,2013-06-01 01:42:00,
2013-05-31 21:47:00,72.5,65.6,30.04,WSW,253,0.0,0.0,79,0.00,,,0.00,LWC V2.00 B2112,2013-06-01 01:47:00,
2013-05-31 21:52:00,72.8,65.9,30.04,SSW,212,0.0,0.0,79,0.00,,,0.00,LWC V2.00 B2112,2013-06-01 01:52:00,
2013-05-31 21:57:00,73.0,65.7,30.04,South,179,0.0,0.0,78,0.00,,,0.00,LWC V2.00 B2112,2013-06-01 01:57:00,
2013-05-31 22:02:00,73.5,65.1,30.04,South,176,0.0,1.0,75,0.00,,,0.00,LWC V2.00 B2112,2013-06-01 02:02:00,
2013-05-31 22:07:00,74.6,65.4,30.04,SSW,194,0.0,0.0,73,0.00,,,0.00,LWC V2.00 B2112,2013-06-01 02:07:00,
2013-05-31 22:12:00,75.3,65.6,30.04,SSE,150,0.0,0.0,72,0.00,,,0.00,LWC V2.00 B2112,2013-06-01 02:12:00,
2013-05-31 22:17:00,75.4,65.7,30.04,SSE,150,0.0,0.0,72,0.00,,,0.00,LWC V2.00 B2112,2013-06-01 02:17:00,
2013-05-31 22:22:00,75.6,65.9,30.04,SSW,207,0.0,0.0,72,0.00,,,0.00,LWC V2.00 B2112,2013-06-01 02:22:00,
2013-05-31 22:27:00,75.4,65.7,30.04,SSW,197,0.0,0.0,72,0.00,,,0.00,LWC V2.00 B2112,2013-06-01 02:27:00,
2013-05-31 22:32:00,75.4,65.7,30.04,SSW,197,0.0,0.0,72,0.00,,,0.00,LWC V2.00 B2112,2013-06-01 02:32:00,
2013-05-31 22:37:00,75.3,66.0,30.04,SSW,197,0.0,0.0,73,0.00,,,0.00,LWC V2.00 B2112,2013-06-01 02:37:00,
2013-05-31 22:42:00,74.9,66.0,30.04,SSW,197,0.0,0.0,74,0.00,,,0.00,LWC V2.00 B2112,2013-06-01 02:42:00,
2013-05-31 22:47:00,74.7,65.8,30.04,SSW,197,0.0,0.0,74,0.00,,,0.00,LWC V2.00 B2112,2013-06-01 02:47:00,
2013-05-31 22:52:00,74.6,66.1,30.04,SSW,197,0.0,0.0,75,0.00,,,0.00,LWC V2.00 B2112,2013-06-01 02:52:00,
2013-05-31 22:57:00,74.4,66.3,30.04,SSW,197,0.0,0.0,76,0.00,,,0.00,LWC V2.00 B2112,2013-06-01 02:57:00,
2013-05-31 23:02:00,74.4,66.3,30.04,SSW,204,0.0,0.0,76,0.00,,,0.00,LWC V2.00 B2112,2013-06-01 03:02:00,
2013-05-31 23:07:00,74.6,66.5,30.04,South,172,0.0,0.0,76,0.00,,,0.00,LWC V2.00 B2112,2013-06-01 03:07:00,
2013-05-31 23:12:00,74.7,66.6,30.04,South,176,0.0,0.0,76,0.00,,,0.00,LWC V2.00 B2112,2013-06-01 03:12:00,
2013-05-31 23:17:00,74.7,66.6,30.04,SSE,156,0.0,0.0,76,0.00,,,0.00,LWC V2.00 B2112,2013-06-01 03:17:00,
2013-05-31 23:22:00,74.9,67.2,30.04,SE,136,0.0,0.0,77,0.00,,,0.00,LWC V2.00 B2112,2013-06-01 03:22:00,
2013-05-31 23:27:00,74.9,67.2,30.04,SSE,164,0.0,0.0,77,0.00,,,0.00,LWC V2.00 B2112,2013-06-01 03:27:00,
2013-05-31 23:32:00,74.9,67.2,30.04,SSW,198,0.0,0.0,77,0.00,,,0.00,LWC V2.00 B2112,2013-06-01 03:32:00,
2013-05-31 23:37:00,75.1,67.4,30.04,South,169,0.0,0.0,77,0.00,,,0.00,LWC V2.00 B2112,2013-06-01 03:37:00,
2013-05-31 23:42:00,75.1,67.8,30.04,WSW,238,0.0,6.0,78,0.00,,,0.00,LWC V2.00 B2112,2013-06-01 03:42:00,
2013-05-31 23:47:00,75.1,67.8,30.04,SSE,168,0.0,0.0,78,0.00,,,0.00,LWC V2.00 B2112,2013-06-01 03:47:00,
2013-05-31 23:52:00,75.1,67.8,30.04,SSW,205,0.0,0.0,78,0.00,,,0.00,LWC V2.00 B2112,2013-06-01 03:52:00,
2013-05-31 23:57:00,74.9,67.9,30.04,SW,216,0.0,0.0,79,0.00,,,0.00,LWC V2.00 B2112,2013-06-01 03:57:00,